Location: Gro� Glienicke
(52.4675°N, 13.1079°E)
Time: 16:50:24
(UTC+00:00)

ATLAS CENTAUR R/B - Pass Details

Date: 06 July 2020
Orbit: 475 x 672 km, 64.7° (Epoch: 13 July)

Event Time Altitude Azimuth Distance (km) Brightness Sun altitude
Rises 20:14:56 0° 316° (NW) 2,592 7.6 -5.6°
Reaches altitude 10° 20:17:07 10° 315° (NW) 1,686 5.7 -5.8°
Maximum altitude 20:20:52 82° 227° (SW) 490 1.1 -6.2°
Drops below altitude 10° 20:24:30 10° 141° (SE) 1,643 3.0 -6.5°
Enters shadow 20:24:46 - 141° (SE) 1,755 3.2 -6.6°
